Weather in Mukhen

Russia / Khabarovsk Krai     48°11′50″N   136°07′37″E
temp.,
°C
wind,
m/s
gust,
m/s
humid.,
%
clouds,
%
prec.,
mm/h
press.,
hPa
HPBL,
m
27 february, sat
sat2701:00−21sse229792 0.0 103527
04:00−21se229263 0.0 103521
07:00−22sse229115 0.0 103621
10:00−15sse13838 0.0 1035182
13:00−9ssw247541 0.0 1033588
16:00−7ssw137570 0.0 1029580
19:00−10se1287100 0.0 102621
22:00−9sse1286100 0.0 102430
28 february, sun
sun2801:00−7s2684100 0.0 1021208
04:00−6ssw41390100 0.3 1018836
07:00−5ssw51295100 2.3 1017892
10:00−3sw51095100 3.9 1017771
13:00−3w5889100 1.4 1017754
16:00−6wsw4886100 1.6 1018757
19:00−10sw41089100 0.2 1022490
22:00−13sw4990100 0.3 1024371
1 march, mon
mon101:00−16sw3894100 0.0 1025323
04:00−18sw4119281 0.0 1027445
07:00−21sw4129325 0.0 1029367
10:00−19sw5118522 0.0 1030625
13:00−16wsw59750 0.0 10301080
16:00−14w596920 0.0 10301329
19:00−18sw4118529 0.0 1032338
22:00−21ssw258927 0.0 103398
2 march, tue
tue201:00−23s239121 0.0 103349
04:00−24s229146 0.0 103335
07:00−23s229799 0.0 103342
10:00−18sw259290 0.1 1032357
13:00−15w357232 0.0 1030905
16:00−15wnw357416 0.0 1029854
19:00−21s11880 0.0 103120
22:00−23se12880 0.0 103320
3 march, wed
wed301:00−24se12880 0.0 103220
04:00−25se12870 0.0 103120
07:00−25se22860 0.0 103120
10:00−17se13790 0.0 1030198
13:00−10sse24670 0.0 1026693
16:00−8sw136527 0.0 1022706
19:00−12se1183100 0.0 102121
22:00−11sse2386100 0.0 102090